User: anonymous   Login
Location: Copeville
(33.0796°N, 96.4155°W)
Time: 15:05:18
(UTC+00:00)
Language:

CAS-6 - Orbit

View from above orbital plane
View from above orbital plane
View from above satellite
View from above satellite

Ground track
Ground track

The orbit data is extracted from the following two-line orbital elements,

1 44881U 19093C   23091.21460968  .00001855  00000-0  23827-3 0  9992
2 44881  97.8641 170.9763 0014287 334.3082  25.7422 14.82329162177397
Epoch (UTC): 01 April 2023 05:09:02
Eccentricity: 0.0014287
inclination: 97.8641°
perigee height: 612 km
apogee height: 632 km
right ascension of ascending node: 170.9763°
argument of perigee: 334.3082°
revolutions per day: 14.82329162
mean anomaly at epoch: 25.7422°
orbit number at epoch: 17739

The dashed part of the orbit path shows where the satellite is in the earth's shadow,  

DLR